Regional Weather Roundup
Issued by NWS

Home | Current Version | Previous Version | Text Only | Print | Product List | Glossary Off
Versions: 1 2 3 4 5 6 7 8 9 10 11 12 13 14 15 16 17 18 19 20 21 22 23 24 25 26 27 28 29 30 31 32 33 34 35 36 37 38 39 40 41 42 43 44 45 46 47 48 49 50

000
ASUS43 KLMK 251810
RWRKY
KENTUCKY REGIONAL WEATHER ROUNDUP
NATIONAL WEATHER SERVICE LOUISVILLE KY
200 PM EDT SAT OCT 25 2014

NOTE "FAIR" INDICATES FEW OR NO CLOUDS BELOW 12,000 FEET
WITH NO SIGNIFICANT WEATHER AND/OR OBSTRUCTIONS TO VISIBILITY.

KYZ001>023-026-027-061>063-070>075-251900-
WESTERN AND SOUTH CENTRAL KENTUCKY

CITY           SKY/WX    TMP DP  RH WIND       PRES   REMARKS
PADUCAH        SUNNY     76  62  62 VRB5      30.02F
HENDERSON      SUNNY    N/A N/A N/A NW9       29.99F
OWENSBORO      SUNNY     74  62  66 W7        29.99F
HOPKINSVILLE   MOSUNNY   74  62  66 VRB5      30.02F
BOWLING GREEN  SUNNY     73  58  59 SW5       30.01F
GLASGOW        MOSUNNY   69  55  62 S7        30.02F
$$

KYZ024-025-028>034-038-045-046-053-251900-
NORTH CENTRAL KENTUCKY

CITY           SKY/WX    TMP DP  RH WIND       PRES   REMARKS
LOUISVILLE/SDF MOSUNNY   72  59  63 SW12      29.97F
LOUISVILLE/LOU MOSUNNY   69  59  70 SW9       29.97F
FORT KNOX      SUNNY     72  59  62 W10       29.97F
$$

KYZ035>037-039>044-047>052-055>060-089>105-251900-
NORTHEAST KENTUCKY

CITY           SKY/WX    TMP DP  RH WIND       PRES   REMARKS
LEXINGTON      MOSUNNY   69  55  60 SW12      29.99F
COVINGTON      MOSUNNY   69  57  65 SW8       29.95F
FRANKFORT      PTSUNNY   68  56  65 SW6       29.97F
$$

KYZ054-064>069-076>088-106>120-251900-
SOUTHEAST KENTUCKY

CITY           SKY/WX    TMP DP  RH WIND       PRES   REMARKS
JACKSON        CLOUDY    63  48  58 VRB5      30.02F
LONDON         CLOUDY    65  49  56 SW6       30.04F
SOMERSET       CLOUDY    63  52  67 SW5       30.05F
MIDDLESBORO    CLOUDY    66  50  54 CALM      30.05F
MONTICELLO     CLOUDY    69  54  58 SW9       30.06F
$$




USA.gov is the U.S. government's official web portal to all federal, state and local government web resources and services.